Zurück zum Katalog

STARLINK-36855

AktivKommunikationSSO
NORAD 68121·PAYLOAD·🇺🇸 United States

Gestartet Mar 8, 2026 von Vandenberg Space Force Base

Loading…

Nächste Überflüge (nächste 24 Stunden)

TLE

AktuellSource: CelesTrak SupGP

Epoche: Sep 14, 2026, 22:44 UTC

1 68121C 26044W   26257.94770833 -.00062556  00000+0 -19420-2 0  2577
2 68121  97.2853 217.0253 0001742  91.6162 137.8572 15.33467705    18

Verfolge STARLINK-36855 in Echtzeit mit AllMySat

Download on the App Store